Home > Weather > Providence > Past weeks

Flag for U.S.A. Weather for the Past 2 Weeks in Providence, Rhode Island, U.S.A.

Now
-9 °F

Passing clouds.


Feels Like: -29 °F
Forecast: -7 / 11 °F
Wind: 13 mph from Northwest

Location: Green State Airport

Current Time: Feb 14, 2016 at 7:44:36 AM

Latest Report: Feb 14, 2016 at 6:51 AM


Visibility: 10 mi

Pressure: 30.35 "Hg

Humidity: 44%

Dew point: -25 °F

Location of ProvidenceLocation

Historic Weather in Providence — Graph

°F

Providence Temperature Yesterday

Maximum temperature yesterday: 23 °F (at 11:51 AM)
Minimum temperature yesterday: -1 °F (at 10:51 PM)
Average temperature yesterday: 14 °F

High & Low Weather Summary for the Past Weeks

 TemperatureHumidityPressure
High66 °F (Feb 1, 12:51 PM)96% (Feb 3, 8:51 PM)30.41 "Hg (Feb 3, 8:51 PM)
Low-9 °F (Feb 14, 4:51 AM)27% (Feb 13, 3:51 PM)29.55 "Hg (Feb 10, 1:51 PM)
Average32 °F67%29.97 "Hg
* Reported Jan 30 5:51 AM — Feb 14 5:51 AM, Providence, Weather by CustomWeather, © 2016

Note: Actual official high and low records may vary slightly from our data, if they occured in-between our weather recording intervals... More about our weather records

Advertising

Providence Weather History for the Previous 24 Hours

 ConditionsComfort  
Time TempWeatherWind HumidityBarometerVisibility
5:51 AM
Sun, Feb 14
-9 °FPassing clouds.16 mph44%30.32 "Hg10 mi
4:51 AM-9 °FClear.12 mph44%30.29 "Hg10 mi
3:51 AM-8 °FClear.13 mph40%30.27 "Hg10 mi
2:51 AM-7 °FClear.14 mph42%30.24 "Hg10 mi
1:51 AM-5 °FClear.17 mph39%30.22 "Hg10 mi
12:51 AM-3 °FClear.15 mph39%30.20 "Hg10 mi
11:51 PM
Sat, Feb 13
-1 °FPassing clouds.18 mph39%30.19 "Hg10 mi
10:51 PM-1 °FClear.17 mph37%30.18 "Hg10 mi
9:51 PM0 °FClear.16 mph36%30.19 "Hg10 mi
8:51 PM1 °FPassing clouds.18 mph34%30.18 "Hg10 mi
7:51 PM2 °FClear.23 mph34%30.17 "Hg10 mi
6:51 PM3 °FClear.21 mph36%30.13 "Hg10 mi
5:51 PM6 °FPassing clouds.21 mph37%30.08 "Hg10 mi
4:51 PM9 °FPassing clouds.22 mph29%30.03 "Hg10 mi
3:51 PM14 °FPassing clouds.22 mph27%29.98 "Hg10 mi
2:51 PM17 °FBroken clouds.28 mphN/A29.94 "Hg10 mi
1:51 PM20 °FBroken clouds.25 mph34%29.90 "Hg10 mi
12:51 PM21 °FBroken clouds.14 mph30%29.87 "Hg10 mi
11:51 AM23 °FBroken clouds.23 mph33%29.87 "Hg10 mi
10:51 AM22 °FBroken clouds.18 mph36%29.87 "Hg10 mi
9:51 AM22 °FBroken clouds.13 mph46%29.85 "Hg10 mi
8:51 AM20 °FBroken clouds.13 mph60%29.85 "Hg10 mi
7:51 AM18 °FLight snow. Ice fog.10 mph74%29.85 "Hg6 mi
Weather by CustomWeather, © 2016

See weather overviewHow to use our weather pages